Location: Newark
(50.0336°N, 22.0047°E)
Time: 00:34:15
(UTC+00:00)

N. Korean satellite - Pass Details

Date: 24 January 2020
Orbit: 456 x 505 km, 97.2° (Epoch: 24 February)

Event Time Altitude Azimuth Distance (km) Brightness Sun altitude
Rises 04:32:46 0° 12° (NNE) 2,529 10.2 -16.5°
Reaches altitude 10° 04:34:49 10° 12° (NNE) 1,655 9.3 -16.1°
Maximum altitude 04:38:23 85° 283° (WNW) 490 6.4 -15.6°
Drops below altitude 10° 04:41:58 10° 196° (SSW) 1,668 9.2 -15.0°
Sets 04:44:02 0° 196° (SSW) 2,553 10.2 -14.7°
